Weather History for Atlanta Fulton, GA

Change the Weather History Date:

Friday, February 1, 2013

  Actual Average Record
Temperature  
Mean Temperature 34 °F 44 °F  
Max Temperature 41 °F 55 °F 66 °F (2002)
Min Temperature 27 °F 34 °F 24 °F (2014)
Degree Days  
Heating Degree Days 31 21  
Month to date heating degree days 21  
Since 1 July heating degree days 1837  
Moisture  
Dew Point 16 °F    
Average Humidity 48    
Maximum Humidity 75    
Minimum Humidity 25    
Precipitation  
Precipitation 0.00 in 0.15 in 1.61 in (2011)
Month to date precipitation 0.15  
Year to date precipitation 4.42  
Snow  
Snow 0.00 in - - ()
Month to date snowfall  
Since 1 July snowfall  
Snow Depth -    
Sea Level Pressure  
Sea Level Pressure 30.30 in    
Wind  
Wind Speed 9 mph (WNW)    
Max Wind Speed 20 mph    
Max Gust Speed 32 mph    
Visibility 10 miles    
Events      
T = Trace of Precipitation, MM = Missing Value Source: NWS Daily Summary

Daily Weather History Graph

Daily Weather History Graph

Search for Another Location

Airport:

Trip Planner

Search our weather history database for the weather conditions in past years. The results will help you decide how hot, cold, wet, or windy it might be!

Date:

Astronomy

Feb. 01, 2013 Rise Set
Actual Time 7:34 AM EST 6:09 PM EST
Civil Twilight 7:08 AM EST 6:35 PM EST
Nautical Twilight 6:38 AM EST 7:05 PM EST
Astronomical Twilight 6:09 AM EST 7:34 PM EST
Moon 11:54 PM EST (2/1) 10:26 AM EST (2/1)
Length of Visible Light 11h 27m
Length of Day
10h 34m
Waning Gibbous, 70% of the Moon is Illuminated
Feb 1
Waning Gibbous
Feb 3
Last Quarter
Feb 10
New
Feb 17
First Quarter
Feb 25
Full

Hourly Weather History & Observations

Time (EST) Temp. Windchill Dew Point Humidity Pressure Visibility Wind Dir Wind Speed Gust Speed Precip Events Conditions
12:53 AM 37.4 °F 32.8 °F 26.6 °F 65% 30.16 in 10.0 mi SW 5.8 mph - N/A   Clear
1:53 AM 37.9 °F 31.5 °F 26.1 °F 62% 30.16 in 10.0 mi SW 9.2 mph - N/A   Clear
2:53 AM 37.0 °F 31.0 °F 26.1 °F 65% 30.15 in 10.0 mi SW 8.1 mph - N/A   Clear
3:53 AM 37.0 °F 31.6 °F 26.1 °F 65% 30.15 in 10.0 mi SW 6.9 mph - N/A   Clear
4:53 AM 37.9 °F 34.4 °F 26.1 °F 62% 30.16 in 10.0 mi SSW 4.6 mph - N/A   Clear
5:53 AM 41.0 °F 34.3 °F 28.9 °F 62% 30.18 in 10.0 mi West 11.5 mph - N/A   Partly Cloudy
6:53 AM 39.0 °F 30.3 °F 24.1 °F 55% 30.22 in 10.0 mi WNW 16.1 mph 32.2 mph N/A   Clear
7:53 AM 36.0 °F 27.5 °F 19.9 °F 52% 30.27 in 10.0 mi WNW 12.7 mph 23.0 mph N/A   Clear
8:53 AM 35.1 °F 24.1 °F 18.0 °F 50% 30.31 in 10.0 mi WNW 19.6 mph 26.5 mph N/A   Clear
9:53 AM 35.1 °F 24.5 °F 14.0 °F 42% 30.35 in 10.0 mi NW 18.4 mph - N/A   Clear
10:53 AM 36.0 °F 28.0 °F 10.9 °F 36% 30.38 in 10.0 mi NW 11.5 mph 24.2 mph N/A   Clear
11:53 AM 37.0 °F 29.3 °F 8.1 °F 30% 30.38 in 10.0 mi NNW 11.5 mph 18.4 mph N/A   Clear
12:53 PM 39.0 °F 31.0 °F 6.1 °F 26% 30.38 in 10.0 mi NW 13.8 mph 24.2 mph N/A   Clear
1:53 PM 39.0 °F 30.3 °F 7.0 °F 27% 30.35 in 10.0 mi NNW 16.1 mph 21.9 mph N/A   Clear
2:53 PM 39.9 °F 34.5 °F 7.0 °F 26% 30.35 in 10.0 mi NNW 8.1 mph 18.4 mph N/A   Clear
3:53 PM 41.0 °F 33.9 °F 8.1 °F 26% 30.35 in 10.0 mi NW 12.7 mph 21.9 mph N/A   Clear
4:53 PM 39.9 °F 32.9 °F 6.1 °F 25% 30.35 in 10.0 mi NW 11.5 mph - N/A   Clear
5:53 PM 37.9 °F 32.7 °F 7.0 °F 28% 30.35 in 10.0 mi North 6.9 mph - N/A   Clear
6:53 PM 36.0 °F - 9.0 °F 33% 30.37 in 10.0 mi Calm Calm - N/A   Clear
7:53 PM 32.0 °F - 16.0 °F 52% 30.38 in 10.0 mi Calm Calm - N/A   Clear
8:53 PM 30.0 °F - 17.1 °F 59% 30.38 in 10.0 mi Calm Calm - N/A   Clear
9:53 PM 30.0 °F - 16.0 °F 56% 30.38 in 10.0 mi Calm Calm - N/A   Clear
10:53 PM 27.0 °F - 19.0 °F 72% 30.39 in 10.0 mi Calm Calm - N/A   Clear
11:53 PM 27.0 °F - 19.9 °F 75% 30.39 in 10.0 mi Calm Calm - N/A   Clear